Location: Newark
(27.9675°N, 86.8869°E)
Time: 01:39:51
(UTC+00:00)

Courier 1B Rocket - Pass Details

Date: 16 October 2019
Orbit: 920 x 1202 km, 28.2° (Epoch: 19 November)

Event Time Altitude Azimuth Distance (km) Brightness Sun altitude
Rises 22:57:52 0° 253° (WSW) 3,544 - -17.5°
Reaches altitude 10° 23:00:26 10° 252° (WSW) 2,607 - -16.9°
Exits shadow 23:02:30 22° 249° (WSW) 1,886 6.0 -16.4°
Maximum altitude 23:06:40 76° 168° (SSE) 969 5.0 -15.5°
Drops below altitude 10° 23:13:12 10° 83° (E) 2,723 8.7 -14.1°
Sets 23:15:56 0° 82° (E) 3,711 9.8 -13.5°
